sat.trackr.live / text

‹ back to catalog

STARLINK-31357

NORAD 59502 · 2024-071U

PAYLOAD ACTIVE UNKNOWN

§ Identity

Operator
Country
US
Launch date
2024-04-13
Launch site
AFETR
Launch vehicle
Mass (kg)
RCS (m²)

Purposes: comms

External: N2YO · Heavens-Above · Gunter

§ Orbital elements

Epoch: 2026-09-20T05:28:06.417120Z

Period
94.27 min
Inclination
43.0058°
Eccentricity
0.0001001
Mean motion
15.27527140 rev/d
Perigee alt
482.5 km
Apogee alt
483.9 km
Semi-major
6,861.3 km
B*
3.4689e-4
RAAN
321.4400°
Arg perigee
284.2016°
Mean anomaly
75.8724°
Rev number
13,795

§ Raw data

STARLINK-313571 59502U 24071U   26263.22785205  .00009280  00000+0  34689-3 0  99962 59502  43.0058 321.4400 0001001 284.2016  75.8724 15.27527140137954

JSON: /api/v1/satellites/59502 · /tle

For live sub-satellite position, see the globe view (requires WebGL).

§ Visibility from observer

Set your observer location to see the next 7 days of passes ≥ 10°. The values pass through the URL so the page stays shareable.

No JS? Fill the form by hand. The geolocation button needs JavaScript.